Regional Weather Roundup
Issued by NWS

Home | Current Version | Previous Version | Text Only | Print | Product List | Glossary On
Versions: 1 2 3 4 5 6 7 8 9 10 11 12 13 14 15 16 17 18 19 20 21 22 23 24 25 26 27 28 29 30 31 32 33 34 35 36 37 38 39 40 41 42 43 44 45 46 47 48 49 50
000
ASUS45 KREV 191710
RWRNV
NEVADA REGIONAL WEATHER ROUNDUP
NATIONAL WEATHER SERVICE RENO NV
1000 AM PDT FRI SEP 19 2014

NOTE: "FAIR" INDICATES FEW OR NO CLOUDS BELOW 12,000 FEET WITH NO
SIGNIFICANT WEATHER AND/OR OBSTRUCTIONS TO VISIBILITY.

NVZ001-003-004-191800-
WESTERN NEVADA

CITY           SKY/WX    TMP DP  RH WIND       PRES   REMARKS
RENO           MOSUNNY   64  44  48 E5        30.11R
CARSON CITY    FAIR      64  41  42 CALM      30.12R
MINDEN         FAIR      63  43  48 NW5       30.13S
SLIDE MTN        N/A     50  36  57 E18         N/A
FALLON         MOSUNNY   73  44  35 N10       30.05S
LOVELOCK       SUNNY     71  32  23 N9        30.06R
HAWTHORNE      SUNNY     72  43  35 N13       30.07S
$$

NVZ002-CAZ072-073-191800-
NORTHERN AND CENTRAL SIERRA

CITY           SKY/WX    TMP DP  RH WIND       PRES   REMARKS
S. LAKE TAHOE  SUNNY     68  38  33 VRB3      30.14S
TRUCKEE        SUNNY     55  43  62 CALM      30.17S
SQUAW VLY 8000 NOT AVBL
SUSANVILLE     SUNNY     66  43  42 E5        30.11R
BLUE CANYON    SUNNY     69  37  30 NE8       30.08S
MAMMOTH LAKES  FAIR      63  36  36 N3        30.20S
$$

NVZ030-031-036-191800-
NORTHERN NEVADA

CITY           SKY/WX    TMP DP  RH WIND       PRES   REMARKS
ELKO           SUNNY     64  45  49 CALM      30.12S
WINNEMUCCA     SUNNY     72  41  32 N21G26    30.10S
WENDOVER       SUNNY     75  39  27 N14       30.08R
$$

NVZ035-037-191800-
CENTRAL NEVADA

CITY           SKY/WX    TMP DP  RH WIND       PRES   REMARKS
ELY            SUNNY     67  44  43 VRB6      30.17S
EUREKA           N/A     67  47  48 N5        30.13S
$$

NVZ013-014-191800-
SOUTH CENTRAL NEVADA

CITY           SKY/WX    TMP DP  RH WIND       PRES   REMARKS
TONOPAH        SUNNY     71  37  28 S6        30.10R
$$

NVZ017-020-022-191800-
SOUTHERN NEVADA

CITY           SKY/WX    TMP DP  RH WIND       PRES   REMARKS
LAS VEGAS      MOSUNNY   84  45  25 VRB3      29.86R
N. LAS VEGAS   SUNNY     83  45  26 CALM      29.89R
NELLIS AFB     SUNNY     83  49  29 S3        29.87S
HENDERSON      SUNNY     83  47  28 SW12      29.92R
MERCURY        SUNNY     79  47  32 W5        29.95S
$$


USA.gov is the U.S. government's official web portal to all federal, state and local government web resources and services.